Showing default

ARCTIC WEATHER SATELLITE, 60543

Orbit data source: Space-Track

ARCTIC WEATHER SATELLITE, 60543 is a payload satellite owned by ESA (NO) in SSO that was launched on Fri, 16 Aug 2024 UTC via an FALCON 9 launch vehicle from the Air Force Western Test Range (AFWTR). Payload-class satellites include a variety of spacecraft equipped with specific instruments for various scientific and technological missions. These include communications satellites like Starlink; space stations such as the ISS; scientific satellites like the Hubble; Earth observation satellites from companies like Planet Labs, Umbra, and HawkEye 360; GPS; miniature CubeSats for education and research; and military/defense satellites.

Loading next visibility...
Identifier
60543, 2024-149CD
Orbit
SSO
Country
Flag of NONO / NOR
Related business
Manufacturer
OHB-SE
Mission
Operational Civil Earth Obs Sci
Bus & Motor
INNOSAT, Unknown motor
Mass
125 kg wet, ~120 kg dry
Launch date (UTC)
2024-08-16 (1 year ago)
Launch vehicle
FALCON 9
Launch site
Air Force Western Test Range (AFWTR)
Object type
Payload
Rocket body
Debris
Shape & HBR
Box + 2 Pan, 2.6 m
Radar Cross Section
2.380 m², Medium (>0.1 m² and < 1m²)

Expand to show TLE details & history
Last TLE update: 16 hours ago

TLE from 16 hours ago
0 ARCTIC WEATHER SATELLITE
1 60543U 24149CD  26034.42885852  .00001225  00000-0  13324-3 0  9991
2 60543  97.6945 108.6367 0002377 158.8913 201.2404 14.89809233 79382
Epoch: 2026-02-03T10:17Z
TLE epoch observation values (Epoch: 2026-02-03T10:17:33.376Z)
Latitude
0.00006°
Longitude
-179.3623°
Altitude
603.118 km
Speed
7.557 km/s
True Right ascension
07h 14m 32s
True Declination
0° 00' 00"
Sunlit
Object was in full shadow at epoch
Visualization orbit readout
Latitude
Unknown
Longitude
Unknown
Altitude
Unknown
Speed
Unknown
Apparent Right ascension
Unknown
Apparent Declination
Unknown
Sunlit
N/A
Visualization observer readout
Local Sidereal Time
04:31:46
Azimuth
Unknown
Elevation
Unknown
Doppler factor
Unknown
Orbital elements
Apogee altitude
597.207 km
Perigee altitude
593.892 km
Semi-major axis
6,973.687 km
Eccentricity
0.00024
Inclination
97.6945°
RAAN
108.6367°
Arg. of periapsis
158.8913°
True anomaly
201.23053°
Mean anomaly
201.2404°
Eccentric anomaly
201.23547°
Mean motion
3.72692 °/min
Orbital period
96.59 mins
BSTAR
0.00013324
Loading maneuver chart data...
Computing Atmospheric mass density...
Loading historical data...
Loading historical data...
Loading historical data...
Loading historical data...
Loading historical data...
Loading historical data...
Loading historical data...

Documentation

Showing up to 5 results
|